{"data":{"norad_id":57445,"epoch":"2026-05-24T19:54:19.439424Z","epoch_age_seconds":103872,"freshness":"FRESH","line1":"1 57445U 23105R   26144.82939166 -.00000187  00000+0  27115-5 0  9994","line2":"2 57445  43.0020 190.0899 0001056 276.3516  83.7216 15.27571129157060","mean_motion":15.27571129,"eccentricity":0.0001056,"inclination_deg":43.002,"raan_deg":190.0899,"arg_perigee_deg":276.3516,"mean_anomaly_deg":83.7216,"bstar":2.7115e-6,"rev_number":15706,"period_min":94.267296145003,"perigee_km":482.35111507672,"apogee_km":483.80020319033,"semimajor_km":6861.2126591335,"source":"CELESTRAK","updated_at":"2026-05-25T13:38:18.321187Z"}}